When you browse on this site, cookies collect data to enhance your experience and personalize the content and advertising you see.
Visit our Privacy Policy to learn more. By continuing to use the site, you agree to this use of cookies and data.
  • In Hungary
  • List of Countries
  • For 7 days
  • Water Temperature
  • Weather Map
  • News
  • Weather Widgets
  • user-avatar
    Login

    Hourly Weather Gorodskoy

    Today, 23 October, Wednesday

    Time Temperature Precipitation Wind Pressure Humidity
    00:00 +13°C° 0 mm 3 mps 763 mmHg 61%
    01:00 +14°C° 0 mm 2 mps 763 mmHg 63%
    02:00 +13°C° 0 mm 2 mps 763 mmHg 65%
    03:00 +13°C° 0 mm 1 mps 763 mmHg 69%
    04:00 +12°C° 0 mm 1 mps 763 mmHg 70%
    05:00 +12°C° 0 mm 1 mps 763 mmHg 71%
    06:00 +12°C° 0 mm 1 mps 763 mmHg 72%
    07:00 +13°C° 0 mm 1 mps 763 mmHg 68%
    08:00 +14°C° 0 mm 1 mps 763 mmHg 64%
    09:00 +15°C° 0 mm 1 mps 763 mmHg 60%
    10:00 +17°C° 0 mm 2 mps 763 mmHg 54%
    11:00 +19°C° 0 mm 2 mps 763 mmHg 48%
    12:00 +21°C° 0 mm 2 mps 763 mmHg 41%
    13:00 +21°C° 0 mm 2 mps 763 mmHg 39%
    14:00 +23°C° 0 mm 2 mps 762 mmHg 36%
    15:00 +24°C° 0 mm 2 mps 762 mmHg 33%
    16:00 +21°C° 0 mm 2 mps 762 mmHg 37%
    17:00 +20°C° 0 mm 2 mps 762 mmHg 41%
    18:00 +18°C° 0 mm 2 mps 762 mmHg 45%
    19:00 +18°C° 0 mm 2 mps 762 mmHg 47%
    20:00 +17°C° 0 mm 2 mps 762 mmHg 49%
    21:00 +16°C° 0 mm 2 mps 763 mmHg 51%
    22:00 +16°C° 0 mm 2 mps 762 mmHg 53%
    23:00 +15°C° 0 mm 2 mps 762 mmHg 55%

    Tomorrow, 24 October, Thursday

    Time Temperature Precipitation Wind Pressure Humidity
    00:00 +15°C° 0 mm 2 mps 762 mmHg 57%
    01:00 +14°C° 0 mm 2 mps 762 mmHg 59%
    02:00 +14°C° 0 mm 1 mps 762 mmHg 62%
    03:00 +14°C° 0 mm 1 mps 762 mmHg 64%
    04:00 +13°C° 0 mm 1 mps 762 mmHg 65%
    05:00 +13°C° 0 mm 1 mps 762 mmHg 66%
    06:00 +13°C° 0 mm 1 mps 762 mmHg 67%
    07:00 +14°C° 0 mm 1 mps 762 mmHg 64%
    08:00 +15°C° 0 mm 1 mps 762 mmHg 61%
    09:00 +16°C° 0 mm 1 mps 763 mmHg 58%
    10:00 +18°C° 0 mm 1 mps 762 mmHg 52%
    11:00 +20°C° 0 mm 1 mps 762 mmHg 46%
    12:00 +22°C° 0 mm 1 mps 762 mmHg 41%
    13:00 +22°C° 0 mm 1 mps 762 mmHg 38%
    14:00 +23°C° 0 mm 1 mps 761 mmHg 36%
    15:00 +24°C° 0 mm 1 mps 761 mmHg 34%
    16:00 +22°C° 0 mm 1 mps 761 mmHg 37%
    17:00 +21°C° 0 mm 1 mps 761 mmHg 41%
    18:00 +19°C° 0 mm 1 mps 761 mmHg 44%
    19:00 +19°C° 0 mm 1 mps 761 mmHg 46%
    20:00 +18°C° 0 mm 1 mps 761 mmHg 47%
    21:00 +18°C° 0 mm 1 mps 761 mmHg 49%
    22:00 +16°C° 0 mm 1 mps 761 mmHg 51%
    23:00 +16°C° 0 mm 1 mps 761 mmHg 53%

    Day after tomorrow, 25 October, Friday

    Time Temperature Precipitation Wind Pressure Humidity
    00:00 +15°C° 0 mm 1 mps 761 mmHg 54%
    01:00 +14°C° 0 mm 0 mps 760 mmHg 56%
    02:00 +13°C° 0 mm 0 mps 760 mmHg 58%
    03:00 +13°C° 0 mm 0 mps 760 mmHg 60%
    04:00 +12°C° 0 mm 0 mps 760 mmHg 61%
    05:00 +12°C° 0 mm 0 mps 760 mmHg 62%
    06:00 +12°C° 0 mm 0 mps 760 mmHg 63%
    07:00 +14°C° 0 mm 1 mps 760 mmHg 60%
    08:00 +15°C° 0 mm 1 mps 760 mmHg 56%
    09:00 +16°C° 0 mm 1 mps 760 mmHg 53%
    10:00 +19°C° 0 mm 1 mps 760 mmHg 48%
    11:00 +20°C° 0 mm 1 mps 760 mmHg 44%
    12:00 +22°C° 0 mm 1 mps 760 mmHg 39%
    13:00 +22°C° 0 mm 1 mps 760 mmHg 37%
    14:00 +23°C° 0 mm 1 mps 760 mmHg 36%
    15:00 +23°C° 0 mm 1 mps 759 mmHg 34%
    16:00 +22°C° 0 mm 1 mps 759 mmHg 38%
    17:00 +20°C° 0 mm 1 mps 759 mmHg 42%
    18:00 +19°C° 0 mm 1 mps 759 mmHg 46%
    19:00 +19°C° 0 mm 1 mps 759 mmHg 48%
    20:00 +18°C° 0 mm 1 mps 759 mmHg 51%
    21:00 +18°C° 0 mm 1 mps 759 mmHg 53%
    22:00 +16°C° 0 mm 1 mps 759 mmHg 54%
    23:00 +15°C° 0 mm 0 mps 760 mmHg 55%

    26 October, Saturday

    Time Temperature Precipitation Wind Pressure Humidity
    00:00 +15°C° 0 mm 0 mps 760 mmHg 56%
    01:00 +14°C° 0 mm 0 mps 760 mmHg 59%
    02:00 +14°C° 0 mm 0 mps 760 mmHg 61%
    03:00 +13°C° 0 mm 0 mps 760 mmHg 63%
    04:00 +14°C° 0 mm 1 mps 760 mmHg 65%
    05:00 +13°C° 0 mm 1 mps 760 mmHg 68%
    06:00 +13°C° 0 mm 1 mps 760 mmHg 70%
    07:00 +14°C° 0 mm 1 mps 760 mmHg 67%
    08:00 +15°C° 0 mm 1 mps 760 mmHg 63%
    09:00 +15°C° 0 mm 0 mps 761 mmHg 59%
    10:00 +17°C° 0 mm 0 mps 761 mmHg 54%
    11:00 +18°C° 0 mm 0 mps 761 mmHg 49%
    12:00 +20°C° 0 mm 0 mps 761 mmHg 44%
    13:00 +22°C° 0 mm 1 mps 761 mmHg 43%
    14:00 +23°C° 0 mm 1 mps 760 mmHg 42%
    15:00 +23°C° 0 mm 1 mps 760 mmHg 41%
    16:00 +22°C° 0 mm 1 mps 760 mmHg 44%
    17:00 +21°C° 0 mm 1 mps 760 mmHg 48%
    18:00 +20°C° 0 mm 1 mps 761 mmHg 51%
    19:00 +18°C° 0 mm 2 mps 761 mmHg 56%
    20:00 +17°C° 0 mm 2 mps 761 mmHg 61%
    21:00 +16°C° 0 mm 2 mps 761 mmHg 65%
    22:00 +16°C° 0 mm 2 mps 761 mmHg 69%
    23:00 +15°C° 0 mm 2 mps 761 mmHg 73%

    27 October, Sunday

    Time Temperature Precipitation Wind Pressure Humidity
    00:00 +14°C° 0 mm 2 mps 761 mmHg 77%
    01:00 +14°C° 0 mm 2 mps 761 mmHg 80%
    02:00 +13°C° 0 mm 1 mps 761 mmHg 82%
    03:00 +13°C° 0 mm 1 mps 761 mmHg 84%
    04:00 +13°C° 0 mm 1 mps 762 mmHg 85%
    05:00 +12°C° 0 mm 1 mps 762 mmHg 86%
    06:00 +12°C° 0 mm 1 mps 762 mmHg 88%
    07:00 +13°C° 0 mm 1 mps 762 mmHg 82%
    08:00 +14°C° 0 mm 1 mps 762 mmHg 77%
    09:00 +15°C° 0 mm 1 mps 762 mmHg 72%
    10:00 +18°C° 0 mm 1 mps 762 mmHg 65%
    11:00 +20°C° 0 mm 1 mps 762 mmHg 58%
    12:00 +21°C° 0 mm 1 mps 762 mmHg 51%
    13:00 +22°C° 0 mm 1 mps 761 mmHg 48%
    14:00 +22°C° 0 mm 1 mps 761 mmHg 46%
    15:00 +23°C° 0 mm 1 mps 760 mmHg 43%
    16:00 +21°C° 0 mm 1 mps 760 mmHg 47%
    17:00 +18°C° 0 mm 0 mps 760 mmHg 51%
    18:00 +16°C° 0 mm 0 mps 760 mmHg 55%
    19:00 +16°C° 0 mm 0 mps 760 mmHg 57%
    20:00 +15°C° 0 mm 0 mps 760 mmHg 59%
    21:00 +15°C° 0 mm 0 mps 760 mmHg 61%
    22:00 +14°C° 0 mm 0 mps 760 mmHg 63%
    23:00 +14°C° 0 mm 0 mps 760 mmHg 65%

    28 October, Monday

    Time Temperature Precipitation Wind Pressure Humidity
    00:00 +13°C° 0 mm 0 mps 760 mmHg 67%
    01:00 +13°C° 0 mm 0 mps 760 mmHg 68%
    02:00 +13°C° 0 mm 0 mps 759 mmHg 70%
    03:00 +12°C° 0 mm 0 mps 759 mmHg 71%
    04:00 +12°C° 0 mm 0 mps 759 mmHg 72%
    05:00 +13°C° 0 mm 1 mps 759 mmHg 73%
    06:00 +13°C° 0 mm 1 mps 759 mmHg 74%
    07:00 +13°C° 0 mm 0 mps 759 mmHg 70%
    08:00 +14°C° 0 mm 0 mps 759 mmHg 66%
    09:00 +15°C° 0 mm 0 mps 759 mmHg 62%
    10:00 +16°C° 0 mm 0 mps 758 mmHg 57%
    11:00 +20°C° 0 mm 1 mps 758 mmHg 52%
    12:00 +21°C° 0 mm 1 mps 758 mmHg 47%
    13:00 +22°C° 0 mm 1 mps 758 mmHg 45%
    14:00 +22°C° 0 mm 1 mps 758 mmHg 44%
    15:00 +22°C° 0 mm 1 mps 757 mmHg 42%
    16:00 +21°C° 0 mm 1 mps 757 mmHg 46%
    17:00 +18°C° 0 mm 0 mps 757 mmHg 50%
    18:00 +17°C° 0 mm 0 mps 757 mmHg 54%
    19:00 +16°C° 0 mm 0 mps 757 mmHg 56%
    20:00 +18°C° 0 mm 1 mps 757 mmHg 58%
    21:00 +16°C° 0 mm 1 mps 757 mmHg 60%
    22:00 +16°C° 0 mm 1 mps 757 mmHg 62%
    23:00 +15°C° 0 mm 0 mps 757 mmHg 64%

    29 October, Tuesday

    Time Temperature Precipitation Wind Pressure Humidity
    00:00 +14°C° 0 mm 0 mps 757 mmHg 65%
    01:00 +14°C° 0 mm 0 mps 756 mmHg 67%
    02:00 +14°C° 0 mm 0 mps 756 mmHg 68%
    03:00 +13°C° 0 mm 0 mps 756 mmHg 69%
    04:00 +14°C° 0 mm 1 mps 756 mmHg 70%
    05:00 +14°C° 0 mm 1 mps 756 mmHg 70%
    06:00 +13°C° 0 mm 1 mps 756 mmHg 71%
    07:00 +14°C° 0 mm 1 mps 756 mmHg 68%
    08:00 +15°C° 0 mm 1 mps 756 mmHg 64%
    09:00 +16°C° 0 mm 1 mps 756 mmHg 61%
    10:00 +19°C° 0 mm 1 mps 757 mmHg 56%
    11:00 +19°C° 0 mm 2 mps 757 mmHg 50%
    12:00 +21°C° 0 mm 2 mps 757 mmHg 45%
    13:00 +21°C° 0 mm 2 mps 756 mmHg 43%
    14:00 +23°C° 0 mm 2 mps 756 mmHg 41%
    15:00 +23°C° 0 mm 2 mps 756 mmHg 40%
    16:00 +21°C° 0 mm 2 mps 756 mmHg 44%
    17:00 +19°C° 0 mm 2 mps 756 mmHg 47%
    18:00 +19°C° 0 mm 1 mps 756 mmHg 51%
    19:00 +18°C° 0 mm 1 mps 757 mmHg 55%
    20:00 +16°C° 0 mm 2 mps 757 mmHg 60%
    21:00 +15°C° 0 mm 2 mps 757 mmHg 64%
    22:00 +15°C° 0 mm 2 mps 757 mmHg 66%
    23:00 +14°C° 0 mm 2 mps 757 mmHg 69%
    Show more